sat.trackr.live / text

‹ back to catalog

STARLINK-34796

NORAD 65205 · 2025-176H

PAYLOAD ACTIVE UNKNOWN

§ Identity

Operator
Country
US
Launch date
2025-08-14
Launch site
AFETR
Launch vehicle
Mass (kg)
RCS (m²)

Purposes: comms

External: N2YO · Heavens-Above · Gunter

§ Orbital elements

Epoch: 2026-05-24T18:08:03.802848Z

Period
93.85 min
Inclination
53.1598°
Eccentricity
0.0001327
Mean motion
15.34396082 rev/d
Perigee alt
461.8 km
Apogee alt
463.6 km
Semi-major
6,840.9 km
B*
4.4023e-4
RAAN
158.9038°
Arg perigee
84.9856°
Mean anomaly
275.1298°
Rev number
4,477

§ Raw data

STARLINK-347961 65205U 25176H   26144.75559957  .00014525  00000+0  44023-3 0  99902 65205  53.1598 158.9038 0001327  84.9856 275.1298 15.34396082 44775

JSON: /api/v1/satellites/65205 · /tle

For live sub-satellite position, see the globe view (requires WebGL).

§ Visibility from observer

Set your observer location to see the next 7 days of passes ≥ 10°. The values pass through the URL so the page stays shareable.

No JS? Fill the form by hand. The geolocation button needs JavaScript.